Location: Gerlach
(40.6516°N, 119.3568°W)
Time: 05:34:33
(UTC-07:00)

Explorer 11/Cluster Stage 4 - Pass Details

Date: 04 February 2023
Orbit: 466 x 1241 km, 28.8° (Epoch: 02 April)

Event Time Altitude Azimuth Distance (km) Brightness Sun altitude
Exits shadow 03:24:32 17° 142° (SE) 2,606 9.3 -41.8°
Drops below altitude 10° 03:28:11 10° 116° (ESE) 3,171 10.1 -41.1°
Sets 03:32:13 0° 99° (E) 4,169 11.0 -40.4°
